• Join FlightAware (Why Join?)
  • Login
  • US Flag GB Flag 
06:42 EDT


 

Airport Tracker/Info


-or-


 

Live Flight TrackerFlight Track Log ✈ SWA127 ✈ 13-Apr-2013 ✈ KBOS - KSTL

Flight Track Log - Related Links

Times and Time Zones

All times are in EDT time to prevent confusion due to time zone crossing. See the SWA127 flight status page for this flight to view local times or setup timezone preferences in your user account.

Time Position Orientation Groundspeed Altitude Reporting Facility
EDT Latitude Longitude Course Direction KTS MPH feet Rate Location/Type
14:35 42.3500 -71.0167 233° Southwest 155 178 1,000  Level KA90
14:37 42.2703 -71.1606 233° Southwest 219 252 7,700 3,060 Climbing Boston Center
14:38 42.2631 -71.2592 264° West 250 288 11,400 2,940 Climbing Boston Center
14:39 42.2536 -71.3742 264° West 299 344 13,700 2,880 Climbing Boston Center
14:40 42.2422 -71.4978 263° West 332 382 17,300 3,120 Climbing Boston Center
14:41 42.2328 -71.6186 264° West 347 399 20,000 2,640 Climbing Boston Center
14:42 42.2192 -71.7478 262° West 352 405 22,600 2,460 Climbing Boston Center
14:44 42.1919 -71.9647 262° West  Level FlightAware Approximate
14:44 42.2078 -72.0111 262° West 352 405 27,600  Level Boston Center
14:45 42.2042 -72.1150 267° West 352 405 29,500 2,400 Climbing Boston Center
14:46 42.2003 -72.2692 268° West 347 399 32,400 2,580 Climbing Boston Center
14:47 42.1961 -72.3925 267° West 347 399 34,800 2,280 Climbing Boston Center
14:48 42.1919 -72.5072 267° West 335 386 37,000 1,560 Climbing Boston Center
14:49 42.1878 -72.6111 267° West 310 357 38,000 480 Climbing Boston Center
14:50 42.1833 -72.7314 267° West 303 349 38,000  Level Boston Center
14:51 42.1786 -72.8519 267° West 303 349 38,000  Level Boston Center
14:52 42.1742 -72.9781 267° West 325 374 38,000  Level Boston Center
14:53 42.1692 -73.1094 267° West 346 398 38,000  Level Boston Center
14:54 42.1642 -73.2439 267° West 352 405 38,000  Level Boston Center
14:55 42.1614 -73.3475 268° West 357 411 38,000  Level Boston Center
14:56 42.1581 -73.4903 268° West 357 411 38,000  Level Boston Center
14:57 42.1525 -73.6219 267° West 357 411 38,000  Level Boston Center
14:58 42.1425 -73.7783 265° West 370 426 38,000  Level Boston Center
14:59 42.1367 -73.9100 267° West 369 425 38,000  Level Boston Center
15:00 42.1306 -74.0414 266° West 364 419 38,000  Level Boston Center
15:01 42.1225 -74.1756 265° West 364 419 38,000  Level Boston Center
15:02 42.1183 -74.3097 268° West 364 419 38,000  Level Boston Center
15:04 42.1050 -74.5447 266° West 358 412 38,000  Level New York Center
15:05 42.0908 -74.6611 261° West 358 412 38,000  Level New York Center
15:06 42.0533 -74.7844 248° West 358 412 38,000  Level New York Center
15:07 42.0158 -74.9078 248° West 353 406 38,000  Level New York Center
15:08 41.9761 -75.0308 247° West 360 414 38,000  Level New York Center
15:09 41.9403 -75.1542 249° West 365 420 38,000  Level New York Center
15:10 41.9025 -75.2769 248° West 365 420 38,000  Level New York Center
15:11 41.8644 -75.3997 247° West 365 420 38,000  Level New York Center
15:12 41.8283 -75.5197 248° West 365 420 38,000  Level New York Center
15:13 41.7903 -75.6394 247° West 365 420 38,000  Level New York Center
15:14 41.7519 -75.7617 247° West 365 420 38,000  Level New York Center
15:15 41.7133 -75.8864 248° West 365 420 38,000  Level New York Center
15:16 41.6747 -76.0058 247° West 365 420 38,000  Level New York Center
15:17 41.6381 -76.1278 248° West 365 420 38,000  Level New York Center
15:18 41.5989 -76.2522 247° West 365 420 38,000  Level New York Center
15:19 41.5622 -76.3711 248° West 365 420 38,000  Level New York Center
15:20 41.5231 -76.4928 247° West 365 420 38,000  Level New York Center
15:21 41.4792 -76.6247 246° West 365 420 38,000  Level New York Center
15:22 41.4400 -76.7431 246° West 365 420 38,000  Level New York Center
15:23 41.4003 -76.8667 247° West 365 420 38,000  Level New York Center
15:24 41.3608 -76.9847 246° West 365 420 38,000  Level New York Center
15:25 41.3211 -77.1056 246° West 365 420 38,000  Level New York Center
15:26 41.2814 -77.2261 246° West 365 420 38,000  Level New York Center
15:27 41.2417 -77.3408 245° Southwest 365 420 38,000  Level New York Center
15:29 41.1522 -77.6103 246° West 353 406 38,000  Level Cleveland Center
15:30 41.1114 -77.7306 246° West 353 406 38,000  Level Cleveland Center
15:31 41.0725 -77.8481 246° West 353 406 38,000  Level Cleveland Center
15:32 41.0336 -77.9597 245° Southwest 348 400 38,000 240 Level Cleveland Center
15:33 40.9944 -78.0769 246° West 348 400 38,500 600 Climbing Cleveland Center
15:34 40.9553 -78.1967 247° West 348 400 39,200 720 Climbing Cleveland Center
15:35 40.9181 -78.3106 247° West 348 400 40,000 360 Climbing Cleveland Center
15:36 40.8767 -78.4275 245° Southwest 348 400 40,000  Level Cleveland Center
15:37 40.8308 -78.5553 245° Southwest 348 400 40,000  Level Cleveland Center
15:38 40.8081 -78.6792 256° West 348 400 40,000  Level Cleveland Center
15:39 40.7956 -78.8114 263° West 348 400 40,000  Level Cleveland Center
15:40 40.7831 -78.9433 263° West 360 414 40,000  Level Cleveland Center
15:41 40.7742 -79.0586 264° West 360 414 40,000  Level Cleveland Center
15:42 40.7611 -79.1906 263° West 365 420 40,000  Level Cleveland Center
15:43 40.7481 -79.3225 263° West 365 420 40,000  Level Cleveland Center
15:44 40.7350 -79.4486 262° West 365 420 40,000  Level Cleveland Center
15:45 40.7214 -79.5803 262° West 365 420 40,000  Level Cleveland Center
15:46 40.7081 -79.7119 262° West 365 420 40,000  Level Cleveland Center
15:47 40.6944 -79.8411 262° West 370 426 40,000  Level Cleveland Center
15:48 40.6825 -79.9697 263° West 370 426 40,000  Level Cleveland Center
15:49 40.6625 -80.1178 260° West 376 433 40,000  Level Cleveland Center
15:50 40.6503 -80.2464 263° West 371 427 40,000  Level Cleveland Center
15:51 40.6361 -80.3589 261° West 361 415 40,000 -300 Level Cleveland Center
15:52 40.6217 -80.5011 262° West 361 415 39,400 -780 Descending Cleveland Center
15:53 40.6069 -80.6294 261° West 356 410 38,500 -720 Descending Cleveland Center
15:54 40.5944 -80.7581 263° West 356 410 38,000 -300 Descending Cleveland Center
15:55 40.5794 -80.8975 262° West 356 410 38,000  Level Cleveland Center
15:57 40.5408 -81.2078 261° West 372 428 38,000  Level Indianapolis Center
15:58 40.5242 -81.3431 261° West 371 427 38,000  Level Indianapolis Center
16:00 40.5097 -81.4789 262° West 371 427 38,000  Level Indianapolis Center
16:01 40.4925 -81.6153 261° West 374 430 38,000  Level Indianapolis Center
16:02 40.4764 -81.7506 261° West 371 427 38,000  Level Indianapolis Center
16:03 40.4597 -81.8861 261° West 372 428 38,000  Level Indianapolis Center
16:04 40.4408 -82.0233 260° West 378 435 38,000  Level Indianapolis Center
16:05 40.4214 -82.1594 259° West 376 433 38,000  Level Indianapolis Center
16:06 40.4025 -82.2933 260° West 369 425 38,000  Level Indianapolis Center
16:07 40.3778 -82.4525 259° West 374 430 38,000  Level Indianapolis Center
16:08 40.3581 -82.5861 259° West 372 428 38,000  Level Indianapolis Center
16:09 40.3378 -82.7192 259° West 370 426 38,000  Level Indianapolis Center
16:10 40.3189 -82.8386 258° West 368 423 38,000  Level Indianapolis Center
16:11 40.2986 -82.9711 259° West 368 423 38,000  Level Indianapolis Center
16:12 40.2747 -83.1247 259° West 368 423 38,000  Level Indianapolis Center
16:13 40.2533 -83.2578 258° West 371 427 38,000  Level Indianapolis Center
16:14 40.2328 -83.3892 258° West 368 423 38,000  Level Indianapolis Center
16:15 40.2125 -83.5197 259° West 366 421 38,000  Level Indianapolis Center
16:16 40.1919 -83.6486 258° West 363 418 38,000  Level Indianapolis Center
16:17 40.1711 -83.7783 258° West 364 419 38,000  Level Indianapolis Center
16:18 40.1489 -83.9092 258° West 369 425 38,000  Level Indianapolis Center
16:19 40.1278 -84.0414 258° West 370 426 38,000  Level Indianapolis Center
16:20 40.1019 -84.1961 258° West 371 427 38,000  Level Indianapolis Center
16:21 40.0794 -84.3286 258° West 372 428 38,000  Level Indianapolis Center
16:22 40.0575 -84.4617 258° West 372 428 38,000  Level Indianapolis Center
16:23 40.0344 -84.5953 257° West 374 430 38,000  Level Indianapolis Center
16:24 40.0117 -84.7269 257° West 371 427 38,000  Level Indianapolis Center
16:25 39.9883 -84.8600 257° West 372 428 38,000  Level Indianapolis Center
16:26 39.9667 -84.9917 258° West 370 426 38,000  Level Indianapolis Center
16:27 39.9436 -85.1239 257° West 371 427 38,000  Level Indianapolis Center
16:28 39.9197 -85.2536 257° West 368 423 38,000  Level Indianapolis Center
16:29 39.8972 -85.3853 257° West 370 426 38,000  Level Indianapolis Center
16:30 39.8703 -85.5400 257° West 370 426 38,000  Level Indianapolis Center
16:31 39.8447 -85.6714 256° West 371 427 38,000  Level Indianapolis Center
16:32 39.8214 -85.8039 257° West 372 428 38,000  Level Indianapolis Center
16:33 39.7989 -85.9358 258° West 373 429 38,000  Level Indianapolis Center
16:34 39.7764 -86.0531 256° West 373 429 38,000  Level Indianapolis Center
16:35 39.7478 -86.2086 257° West 370 426 38,000  Level Indianapolis Center
16:36 39.7244 -86.3386 257° West 369 425 38,000 -480 Level Indianapolis Center
16:37 39.6997 -86.4672 256° West 368 423 37,100 -960 Descending Indianapolis Center
16:39 39.6742 -86.5972 256° West 370 426 36,100 -900 Descending Indianapolis Center
16:40 39.6503 -86.7294 257° West 375 432 35,300 -900 Descending Indianapolis Center
16:41 39.6253 -86.8564 256° West 366 421 34,300 -960 Descending Indianapolis Center
16:42 39.6008 -86.9867 256° West 371 427 33,400 -960 Descending Indianapolis Center
16:43 39.5769 -87.1106 256° West 358 412 32,400 -720 Descending Indianapolis Center
16:44 39.5528 -87.2347 256° West 355 409 32,000 -240 Descending Indianapolis Center
16:45 39.5281 -87.3581 255° West 352 405 32,000  Level Indianapolis Center
16:46 39.4989 -87.5053 256° West 350 403 32,000  Level Indianapolis Center
16:47 39.4747 -87.6303 256° West 356 410 32,000  Level Indianapolis Center
16:48 39.4497 -87.7544 255° West 357 411 32,000 -480 Level Indianapolis Center
16:49 39.4247 -87.8800 256° West 358 412 31,100 -1,680 Descending Indianapolis Center
16:50 39.3989 -88.0061 255° West 361 415 28,600 -1,860 Descending Indianapolis Center
16:51 39.3719 -88.1233 253° West 350 403 27,400 -1,080 Descending Indianapolis Center
16:52 39.3431 -88.2381 252° West 341 392 26,400 -1,080 Descending Indianapolis Center
16:53 39.3119 -88.3539 251° West 336 387 25,300 -1,080 Descending Kansas City Center
16:54 39.2822 -88.4656 251° West 331 381 24,300 -660 Descending Kansas City Center
16:55 39.2517 -88.5767 250° West 328 377 24,000 -600 Descending Kansas City Center
16:56 39.2219 -88.6894 251° West 326 375 23,100 -960 Descending Kansas City Center
16:57 39.1919 -88.7992 251° West 326 375 22,100 -960 Descending Kansas City Center
16:58 39.1619 -88.9075 250° West 323 372 21,100 -540 Descending Kansas City Center
16:59 39.1303 -89.0281 251° West 315 362 21,000 -60 Descending Kansas City Center
17:00 39.0978 -89.1428 250° West 317 365 21,000 -600 Level Kansas City Center
17:01 39.0828 -89.1544 211° Southwest 312 359 20,100 -1,860 Descending FAA TRACON SMA TRACON (SMA)
17:01 39.0728 -89.1953 253° West 312 359 19,200 -2,280 Descending FAA TRACON SMA TRACON (SMA)
17:01 39.0664 -89.2281 256° West 310 357 18,600 -2,040 Descending FAA TRACON SMA TRACON (SMA)
17:02 39.0586 -89.2603 253° West 306 352 17,900 -2,280 Descending FAA TRACON SMA TRACON (SMA)
17:02 39.0497 -89.3003 254° West 304 350 17,100 -2,220 Descending FAA TRACON SMA TRACON (SMA)
17:02 39.0408 -89.3308 249° West 300 345 16,400 -2,160 Descending FAA TRACON SMA TRACON (SMA)
17:03 39.0344 -89.3625 255° West 297 342 15,700 -2,100 Descending FAA TRACON SMA TRACON (SMA)
17:03 39.0253 -89.4014 253° West 295 339 15,000 -1,920 Descending FAA TRACON SMA TRACON (SMA)
17:03 39.0186 -89.4322 254° West 293 337 14,400 -1,860 Descending FAA TRACON SMA TRACON (SMA)
17:04 39.0119 -89.4628 254° West 289 333 13,800 -1,980 Descending FAA TRACON SMA TRACON (SMA)
17:05 38.9575 -89.5833 240° Southwest 292 336 11,100 -1,920 Descending FAA TRACON SMA TRACON (SMA)
17:06 38.9222 -89.6278 224° Southwest 290 334 10,000 -1,200 Descending FAA TRACON SMA TRACON (SMA)
17:06 38.9000 -89.6542 223° Southwest 282 325 9,900 -180 Descending FAA TRACON SMA TRACON (SMA)
17:06 38.8844 -89.6739 225° Southwest 267 307 9,900  Level FAA TRACON SMA TRACON (SMA)
17:07 38.8694 -89.6933 225° Southwest 255 293 9,900 -780 Level FAA TRACON SMA TRACON (SMA)
17:07 38.8508 -89.7175 225° Southwest 248 285 9,400 -1,320 Descending FAA TRACON SMA TRACON (SMA)
17:07 38.8356 -89.7358 223° Southwest 244 281 9,000 -780 Descending FAA TRACON SMA TRACON (SMA)
17:08 38.8203 -89.7544 224° Southwest 244 281 8,900 -180 Descending FAA TRACON SMA TRACON (SMA)
17:08 38.8014 -89.7781 224° Southwest 245 282 8,900 -300 Level FAA TRACON SMA TRACON (SMA)
17:08 38.7869 -89.7967 225° Southwest 242 278 8,700 -960 Descending FAA TRACON SMA TRACON (SMA)
17:09 38.7722 -89.8147 224° Southwest 241 277 8,300 -1,200 Descending FAA TRACON SMA TRACON (SMA)
17:09 38.7575 -89.8331 224° Southwest 239 275 7,900 -1,620 Descending FAA TRACON SMA TRACON (SMA)
17:09 38.7406 -89.8569 228° Southwest 236 272 7,200 -2,340 Descending FAA TRACON SMA TRACON (SMA)
17:10 38.7325 -89.8806 246° West 236 272 6,400 -2,700 Descending FAA TRACON SMA TRACON (SMA)
17:10 38.7236 -89.9111 250° West 239 275 5,400 -2,100 Descending FAA TRACON SMA TRACON (SMA)
17:10 38.7156 -89.9372 248° West 248 285 5,000 -780 Descending FAA TRACON SMA TRACON (SMA)
17:11 38.7072 -89.9633 248° West 255 293 4,900 -600 Descending FAA TRACON SMA TRACON (SMA)
17:11 38.6989 -89.9889 247° West 256 295 4,600 -1,320 Descending FAA TRACON SMA TRACON (SMA)
17:11 38.6908 -90.0217 253° West 254 292 4,000 -1,740 Descending FAA TRACON SMA TRACON (SMA)
17:12 38.6903 -90.0494 269° West 256 295 3,500 -900 Descending FAA TRACON SMA TRACON (SMA)
17:12 38.6906 -90.0767 271° West 252 290 3,400  Descending FAA TRACON SMA TRACON (SMA)
17:12 38.6917 -90.1081 273° West 233 268 3,500  Climbing FAA TRACON SMA TRACON (SMA)
17:13 38.6922 -90.1308 272° West 213 245 3,400 -900 Descending FAA TRACON SMA TRACON (SMA)
17:13 38.6944 -90.1731 274° West 166 191 2,600 -1,200 Descending FAA TRACON SMA TRACON (SMA)
17:14 38.6972 -90.1911 281° West 164 189 2,200 -900 Descending FAA TRACON SMA TRACON (SMA)
17:14 38.7006 -90.2072 285° West 158 182 2,000 -900 Descending FAA TRACON SMA TRACON (SMA)
17:14 38.7061 -90.2247 292° West 141 162 1,600 -1,080 Descending FAA TRACON SMA TRACON (SMA)
17:15 38.7108 -90.2386 294° West 136 157 1,300 -780 Descending FAA TRACON SMA TRACON (SMA)
17:15 38.7192 -90.2542 304° West 136 157 1,100 -600 Descending FAA TRACON SMA TRACON (SMA)
17:15 38.7253 -90.2669 302° West 137 158 900 -600 Descending FAA TRACON SMA TRACON (SMA)
17:16 38.7314 -90.2794 302° West 137 158 700 -600 Descending FAA TRACON SMA TRACON (SMA)
17:18 38.7487 -90.3700 303° West  Level Estimated